Hourly Data Report for October 07, 2016

All times are specified in Local Standard Time (LST). Add 1 hour to adjust for Daylight Saving Time where and when it is observed.

GRISE FIORD CLIMATE
NUNAVUT

76°25'22.040" N
82°54'08.020" W
44.50 m
2402351
71971
NGC

Download Data

Hourly Data (October 2016)
Hourly Data Report for October 7, 2016
Temp Definition
°C
Dew Point Temp Definition
°C
Rel Hum Definition
%
Wind Dir Definition
10's deg

Wind Spd Definition
km/h
Visibility Definition
km
Stn Press Definition
kPa
Hmdx Definition


Wind Chill Definition


Weather Definition


TIME
00:00 -3.0 -3.4 97 25 15   100.33   -8 LegendNANA
01:00 -3.0 -3.7 95 12 5   100.36   -5 LegendNANA
02:00 -2.9 -4.1 91 23 2   100.40   -4 LegendNANA
03:00 -3.5 -5.7 85 30 1   100.42   -4 LegendNANA
04:00 -4.4 -6.2 87 6 4   100.46   -6 LegendNANA
05:00 -4.0 -7.8 75 25 22   100.54   -11 LegendNANA
06:00 -7.2 -10.2 79 2 6   100.57   -10 LegendNANA
07:00 -5.4 -9.0 76 26 3   100.64   -7 LegendNANA
08:00 -5.5 -9.5 74 30 7   100.72   -9 LegendNANA
09:00 -7.4 -11.6 71 35 5   100.81   -10 LegendNANA
10:00 -6.0 -10.3 71 4 9   100.86   -10 LegendNANA
11:00 -5.6 -9.7 73 3 1   100.93   -6 LegendNANA
12:00 -5.5 -10.0 70 25 10   101.01   -10 LegendNANA
13:00 -5.5 -10.1 70 29 2   101.05   -6 LegendNANA
14:00 -4.8 -9.9 68 26 12   101.09   -10 LegendNANA
15:00 -6.5 -10.8 71 32 10   101.16   -11 LegendNANA
16:00 -5.5 -11.0 65 1 4   101.24   -7 LegendNANA
17:00 -6.0 -10.5 70 4 8   101.30   -10 LegendNANA
18:00 -5.6 -9.3 75 3 6   101.30   -8 LegendNANA
19:00 -5.0 -9.0 73 5 8   101.29   -9 LegendNANA
20:00 -4.6 -7.6 80 5 8   101.31   -8 LegendNANA
21:00 -5.6 -7.3 88 9 2   101.31   -7 LegendNANA
22:00 -5.2 -6.5 90 0 1   101.31   -6 LegendNANA
23:00 -4.8 -7.0 85 25 2   101.27   -6 LegendNANA

Notes on Data Quality.

Legend

  • E = Estimated
  • M = Missing
  • NA = Not Available
  • ‡ = Partner data that is not subject to review by the National Climate Archives
Date modified: